Location: Bryzozowice
(50.3667°N, 18.9667°E)
Time: 06:30:58
(UTC+00:00)

Envisat - Pass Details

Date: 24 January 2020
Orbit: 764 x 766 km, 98.1° (Epoch: 23 February)

Event Time Altitude Azimuth Distance (km) Brightness Sun altitude
Rises 16:25:52 0° 166° (SSE) 3,222 6.3 -10.0°
Reaches altitude 10° 16:28:09 10° 167° (SSE) 2,300 5.5 -10.4°
Maximum altitude 16:33:14 82° 255° (WSW) 780 3.1 -11.1°
Drops below altitude 10° 16:38:22 10° 344° (NNW) 2,316 5.5 -11.9°
Sets 16:40:41 0° 346° (NNW) 3,247 6.2 -12.3°
